Location: Barrio Pajares
(40.5500°N, 4.1667°W)
Time: 20:48:51
(UTC+00:00)

ATLAS CENTAUR R/B - Pass Details

Date: 18 April 2024
Orbit: 447 x 588 km, 64.7° (Epoch: 18 May)

Event Time Altitude Azimuth Distance (km) Brightness Sun altitude
Rises 21:37:40 0° 338° (NNW) 2,569 5.8 -26.6°
Reaches altitude 10° 21:40:04 10° 353° (N) 1,711 4.5 -26.9°
Enters shadow 21:41:49 20° 16° (NNE) 1,235 3.4 -27.2°
